Location: Arcones
(41.1182°N, 3.7238°W)
Time: 04:48:36
(UTC+00:00)

Cosmos 1758 Rocket - Pass Details

Date: 11 December 2025
Orbit: 595 x 629 km, 82.5° (Epoch: 13 January)

Event Time Altitude Azimuth Distance (km) Brightness Sun altitude
Rises 17:25:10 0° 348° (NNW) 2,858 6.8 -7.3°
Reaches altitude 10° 17:27:24 10° 346° (NNW) 1,946 6.0 -7.7°
Maximum altitude 17:31:38 64° 266° (W) 663 4.0 -8.5°
Drops below altitude 10° 17:35:51 10° 184° (S) 1,923 6.5 -9.2°
Sets 17:38:03 0° 181° (S) 2,819 7.3 -9.6°
